Flag for Canada Weather past 2 weeks in Ottawa, Ontario, Canada

Now
59 °F

Partly sunny.


Feels Like: 55 °F
Forecast: 41 / 58 °F
Wind: 23 mph from West

Location: Ottawa Int'L. Ont.

Current Time: Apr 18, 2015 at 3:26:35 PM

Latest Report: Apr 18, 2015 at 2:00 PM


Visibility: 15 mi

Pressure: 29.94 "Hg

Humidity: 39%

Dew point: 34 °F

Location of OttawaLocation

Historic Weather in Ottawa — Graph

°F

Ottawa temperature yesterday

Maximum temperature yesterday: 70 °F (at 4:00 PM)
Minimum temperature yesterday: 48 °F (at 5:00 AM)
Average temperature yesterday: 58 °F

Past Weeks' High & Low Weather Summary

 TemperatureHumidityPressure
High73 °F (Apr 13, 4:00 PM)100% (Apr 4, 3:00 AM)30.45 "Hg (Apr 4, 3:00 AM)
Low23 °F (Apr 6, 2:00 AM)13% (Apr 15, 4:00 PM)29.40 "Hg (Apr 10, 4:00 PM)
Average42 °F57%30.08 "Hg
* Reported Apr 3 2:00 PM — Apr 18 2:00 PM, Ottawa, Weather by CustomWeather, © 2015

Note: Actual official high and low records may vary slightly from our data, if they occured in-between our weather recording intervals... More about our weather records

Advertising

Ottawa weather history for previous 24 hours

 ConditionsComfort  
Time TempWeatherWind HumidityBarometerVisibility
2:00 PM
Sat, Apr 18
59 °FPartly sunny.23 mph39%29.94 "Hg15 mi
1:00 PM59 °FScattered clouds.14 mph36%29.91 "Hg15 mi
12:00 PM54 °FPassing clouds.6 mph44%29.90 "Hg15 mi
11:00 AM52 °FPartly sunny.12 mph47%29.93 "Hg15 mi
10:00 AM52 °FPartly sunny.7 mph44%29.90 "Hg15 mi
9:00 AM48 °FScattered clouds.9 mph46%29.93 "Hg15 mi
8:00 AM45 °FPassing clouds.10 mph49%29.94 "Hg15 mi
7:00 AM39 °FPassing clouds.9 mph61%29.95 "Hg15 mi
6:00 AM41 °FPassing clouds.6 mph53%29.95 "Hg15 mi
5:00 AM43 °FPassing clouds.7 mph49%29.94 "Hg15 mi
4:00 AM43 °FPassing clouds.6 mph49%29.95 "Hg15 mi
3:00 AM46 °FPassing clouds.9 mph43%29.96 "Hg15 mi
2:00 AM43 °FPassing clouds.7 mph57%29.97 "Hg15 mi
1:00 AM48 °FPassing clouds.3 mph43%29.96 "Hg15 mi
12:00 AM48 °FPassing clouds.5 mph46%29.96 "Hg15 mi
11:00 PM
Fri, Apr 17
54 °FClear.7 mph38%29.94 "Hg15 mi
10:00 PM55 °FClear.7 mph41%29.92 "Hg15 mi
9:00 PM59 °FPassing clouds.13 mph39%29.90 "Hg15 mi
8:00 PM61 °FPassing clouds.13 mph39%29.87 "Hg15 mi
7:00 PM66 °FPassing clouds.14 mph28%29.85 "Hg15 mi
6:00 PM68 °FScattered clouds.16 mph28%29.83 "Hg15 mi
5:00 PM70 °FBroken clouds.15 mph27%29.83 "Hg15 mi
4:00 PM70 °FScattered clouds.15 mph27%29.84 "Hg15 mi
3:00 PM68 °FPassing clouds.22 mph28%29.86 "Hg15 mi
Weather by CustomWeather, © 2015

See weather overviewHow to use our weather pages